www.pogodaiklimat.ru

Погода и климат >> Архив погоды >> Австралия >> Западная Австралия >> Перт Джандакот


ПОГОДА в Перт Джандакот

  • Прогноз погоды в Перт Джандакот
  • Монитор погоды в Перт Джандакот

АРХИВ ПОГОДЫ в Перт Джандакот

Время (UTC), дата Ветер
(напр.,м/с)
 
Видим.   Явления Облачность Т
(С)
Тd
(С)
f
(%)
Тe
(С)
Тes
(С)
Комфортность P
(гПа)
Po
(гПа)
Тmin
(С)
Tmax
(С)
R
(мм)
R24
(мм)
S
(см)
07 19.03 З 9 н/о н/о +29.1 +19.4 56 +35 +35 очень
душно
1008.4 1004.9
09 19.03 ЮЗ 5 н/о н/о +26.5 +19.9 67 +32 +32 очень
душно
1008.6 1005.0
10 19.03 Ю 5 н/о н/о +25.2 +20.0 73 +31 +31 очень
душно
1009.0 1005.4
12 19.03 ЮЗ 2 н/о н/о +22.7 +19.3 81 +29 +29 очень
душно
1010.8 1007.2
13 19.03 штиль 0 н/о н/о +22.7 +19.5 82 +29 +29 очень
душно
1010.9 1007.3 +34.1
15 19.03 З 3 н/о н/о +21.9 +19.6 87 +27 +27 душно 1010.3 1006.7
16 19.03 штиль 0 н/о н/о +21.1 +19.9 93 +26 +26 душно 1010.4 1006.8
18 19.03 штиль 0 н/о н/о +20.6 +20.1 97 +25 +25 комфорт 1010.2 1006.6
19 19.03 штиль 0 9000 м н/о +19.8 +19.5 98 +23 +23 комфорт 1009.9 1006.3
21 19.03 штиль 0 н/о н/о +19.9 +19.7 99 +23 +23 комфорт 1010.6 1007.0
22 19.03 С 2 7000 м 3/3 100 м
[]
+19.7 +19.7 100 +23 +23 комфорт 1010.9 1007.3
00 20.03 С 3 н/о н/о +23.3 +20.4 84 +31 +31 очень
душно
1012.1 1008.5
01 20.03 С 3 н/о н/о +24.8 +19.6 73 +30 +30 душно 1012.3 1008.7 +18.9
03 20.03 З 2 н/о н/о +30.0 +19.1 52 +35 +35 очень
душно
1011.7 1008.1
04 20.03 ЮЗ 5 н/о н/о +30.2 +21.0 58 +38 +38 очень
душно
1011.0 1007.4
06 20.03 З 6 н/о н/о +28.7 +20.7 62 +36 +36 очень
душно
1010.1 1006.5
07 20.03 З 5 н/о 1/0
[]
+28.2 +21.0 65 +35 +40 очень
душно
1009.7 1006.1
09 20.03 ЮЗ 5 н/о н/о +27.8 +19.6 61 +34 +34 очень
душно
1009.2 1005.6
10 20.03 З 4 н/о 9/0
[]
+25.9 +18.8 65 +31 +31 очень
душно
1009.9 1006.3
12 20.03 З 2 н/о н/о +24.6 +19.7 74 +30 +30 очень
душно
1010.7 1007.1
13 20.03 З 3 н/о 10/0
[]
+24.4 +20.5 79 +30 +30 очень
душно
1010.5 1006.9 +31.8
15 20.03 С 1 н/о н/о +24.1 +19.8 77 +29 +29 душно 1010.3 1006.7
16 20.03 СВ 3 н/о 10/0
[]
+24.9 +19.3 71 +30 +30 душно 1009.8 1006.2
18 20.03 ЮВ 4 н/о н/о +25.5 +16.6 58 +29 +29 душно 1009.0 1005.4
19 20.03 В 7 н/о 9/0
[]
+24.9 +16.9 61 +29 +29 душно 1008.3 1004.8
21 20.03 В 6 н/о н/о +23.4 +17.4 69 +29 +29 душно 1009.0 1005.4
22 20.03 В 5 н/о 10/0
[]
+23.0 +17.5 71 +28 +28 душно 1009.7 1006.1
00 21.03 ЮВ 4 н/о н/о +23.8 +17.8 69 +28 +28 душно 1010.0 1006.4
01 21.03 В 3 н/о 10/0
[]
+26.0 +17.9 61 +30 +33 душно 1010.2 1006.6 +22.8
03 21.03 В 3 н/о н/о +29.3 +17.8 50 +34 +34 очень
душно
1009.7 1006.1
04 21.03 З 3 н/о 9/0
[]
+30.1 +18.2 49 +35 +42 очень
душно
1009.6 1006.0
06 21.03 З 5 н/о н/о +30.1 +18.5 50 +35 +35 очень
душно
1008.7 1005.1
07 21.03 З 6 н/о н/о +29.7 +17.8 49 +34 +34 очень
душно
1008.6 1005.0
09 21.03 ЮЗ 6 н/о н/о +27.1 +18.7 60 +32 +32 очень
душно
1008.9 1005.3
10 21.03 ЮЗ 4 н/о н/о +26.2 +18.3 62 +31 +31 очень
душно
1008.9 1005.3
12 21.03 СЗ 3 н/о н/о +23.8 +18.9 74 +29 +29 душно 1009.9 1006.3
13 21.03 штиль 0 н/о н/о +21.5 +17.9 80 +26 +26 душно 1010.3 1006.7 +31.0
15 21.03 ЮВ 2 н/о н/о +20.9 +18.5 86 +26 +26 душно 1010.0 1006.4
16 21.03 ЮВ 2 н/о н/о +22.3 +18.1 77 +27 +27 душно 1010.3 1006.7
18 21.03 Ю 3 н/о н/о +22.5 +17.2 72 +27 +27 душно 1010.1 1006.5
22 21.03 Ю 3 н/о н/о +19.3 +17.1 87 +22 +22 комфорт 1011.2 1007.6
01 22.03 ЮВ 6 н/о 10/10 600 м
[]
+23.3 +17.7 71 +29 +29 душно 1013.0 1009.4 +19.3
03 22.03 ЮВ 7 н/о н/о +25.6 +17.5 61 +30 +30 душно 1012.6 1009.0
04 22.03 Ю 7 н/о 5/5 600 м
[]
+26.1 +17.5 59 +30 +33 душно 1012.3 1008.7
06 22.03 ЮВ 8 н/о н/о +28.8 +17.3 50 +33 +33 очень
душно
1011.3 1007.7
07 22.03 ЮВ 7 н/о 1/1 1000 м
[]
+28.2 +17.1 51 +32 +35 душно 1011.3 1007.7
09 22.03 Ю 7 н/о н/о +27.3 +16.0 50 +31 +31 душно 1011.7 1008.1
10 22.03 ЮВ 5 н/о 6/6 1000 м
[]
+26.3 +16.0 53 +30 +30 душно 1012.2 1008.6
12 22.03 Ю 8 н/о н/о +22.2 +16.7 71 +27 +27 душно 1014.7 1011.1
13 22.03 Ю 8 н/о 10/10 600 м
[]
+21.7 +15.1 66 +25 +25 комфорт 1015.9 1012.3 +29.3
15 22.03 ЮВ 6 н/о н/о +19.4 +13.8 70 +20 +20 1017.3 1013.7
16 22.03 ЮВ 8 н/о 10/10 600 м
[]
+18.3 +12.5 69 +18 +18 1017.9 1014.3
18 22.03 Ю 6 н/о н/о +15.7 +9.1 65 +14 +14 1018.6 1015.0
19 22.03 Ю 5 н/о н/о +14.9 +9.1 68 +14 +14 1018.2 1014.6
21 22.03 Ю 5 н/о н/о +14.2 +9.2 72 +13 +13 1018.8 1015.2
22 22.03 ЮВ 6 н/о н/о +14.1 +9.3 73 +12 +12 1018.8 1015.2
00 23.03 ЮВ 5 н/о н/о +17.0 +8.9 59 +16 +16 1019.2 1015.6
01 23.03 ЮВ 8 н/о н/о +19.0 +8.9 52 +19 +19 1019.1 1015.5 +14.0
03 23.03 ЮВ 6 н/о н/о +22.8 +9.2 42 +24 +24 комфорт 1018.3 1014.7
04 23.03 В 4 н/о н/о +23.9 +9.5 40 +25 +25 комфорт 1017.5 1013.9
06 23.03 В 4 н/о н/о +25.9 +8.4 33 +26 +26 жарко 1015.9 1012.3
07 23.03 ЮВ 4 н/о н/о +26.7 +7.7 30 +27 +27 жарко 1015.3 1011.7
09 23.03 ЮЗ 8 н/о н/о +24.0 +12.3 48 +26 +26 жарко 1014.7 1011.1
10 23.03 ЮЗ 7 н/о н/о +22.2 +12.2 53 +25 +25 комфорт 1014.9 1011.3
12 23.03 Ю 6 н/о н/о +19.9 +11.4 58 +21 +21 комфорт 1016.3 1012.7
13 23.03 Ю 5 н/о н/о +19.0 +10.6 58 +20 +20 1016.9 1013.3 +27.7
15 23.03 Ю 4 н/о н/о +16.7 +7.9 56 +16 +16 1017.2 1013.6
16 23.03 Ю 4 н/о н/о +15.7 +7.7 59 +15 +15 1017.1 1013.5
18 23.03 Ю 5 н/о н/о +13.8 +7.8 67 +12 +12 1017.7 1014.1
19 23.03 Ю 4 н/о н/о +12.6 +7.7 72 +11 +11 1017.9 1014.3
21 23.03 Ю 3 н/о н/о +10.9 +7.4 79 +9 +9 1018.7 1015.1
22 23.03 Ю 2 н/о н/о +9.0 +7.0 87 +8 +8 1019.3 1015.7
00 24.03 Ю 3 н/о н/о +14.3 +8.9 70 +14 +14 1020.0 1016.4
01 24.03 В 2 н/о н/о +17.3 +9.2 59 +18 +18 1020.6 1017.0 +8.2
03 24.03 С 3 н/о н/о +21.6 +9.8 47 +23 +23 комфорт 1019.1 1015.5
04 24.03 ЮЗ 3 н/о н/о +23.3 +9.3 41 +25 +25 комфорт 1017.9 1014.3
06 24.03 ЮЗ 4 н/о н/о +26.4 +11.3 39 +28 +28 жарко 1016.1 1012.5
07 24.03 ЮЗ 9 н/о н/о +24.9 +12.8 47 +27 +27 жарко 1015.9 1012.3
09 24.03 ЮЗ 7 н/о н/о +24.1 +13.0 50 +26 +26 жарко 1015.8 1012.2
10 24.03 ЮЗ 6 н/о н/о +22.7 +13.5 56 +26 +26 жарко 1016.2 1012.6
12 24.03 ЮВ 4 н/о н/о +20.0 +9.6 51 +21 +21 комфорт 1017.6 1014.0
13 24.03 ЮВ 5 н/о н/о +19.3 +7.7 47 +20 +20 1018.2 1014.6 +27.7
15 24.03 ЮВ 7 н/о н/о +18.5 +6.4 45 +18 +18 1018.7 1015.1
16 24.03 В 7 н/о н/о +17.4 +6.9 50 +17 +17 1019.0 1015.4
18 24.03 В 7 н/о н/о +14.7 +6.5 58 +13 +13 1019.6 1016.0
19 24.03 В 7 н/о н/о +13.9 +6.3 60 +12 +12 1019.6 1016.0
21 24.03 В 6 н/о н/о +13.0 +6.4 64 +11 +11 1020.4 1016.8
22 24.03 В 3 н/о н/о +12.6 +6.2 65 +11 +11 1021.3 1017.7
00 25.03 В 6 н/о н/о +15.9 +7.1 56 +15 +15 1021.4 1017.8
01 25.03 В 8 н/о н/о +17.9 +7.0 49 +17 +17 1021.5 1017.9 +12.3
03 25.03 В 6 н/о н/о +22.0 +7.0 38 +23 +23 комфорт 1020.6 1017.0
04 25.03 В 6 н/о н/о +23.9 +6.7 33 +24 +24 комфорт 1019.6 1016.0
06 25.03 В 6 н/о н/о +26.7 +6.2 27 +26 +26 жарко 1017.9 1014.3
07 25.03 В 7 н/о н/о +27.5 +5.1 24 +26 +26 жарко 1017.5 1013.9
09 25.03 В 5 н/о н/о +27.4 +4.5 23 +26 +26 жарко 1017.6 1014.0
10 25.03 В 5 н/о н/о +25.7 +4.2 25 +25 +25 комфорт 1017.7 1014.1
12 25.03 В 5 н/о н/о +22.8 +4.3 30 +23 +23 комфорт 1018.7 1015.1
13 25.03 В 5 н/о н/о +22.1 +4.2 31 +22 +22 комфорт 1018.9 1015.3 +28.4
15 25.03 В 7 н/о н/о +22.8 +3.9 29 +23 +23 комфорт 1018.4 1014.8
16 25.03 СВ 4 н/о н/о +20.6 +3.8 33 +21 +21 комфорт 1018.6 1015.0
18 25.03 В 3 н/о н/о +18.9 +4.3 38 +19 +19 1018.3 1014.7
19 25.03 В 7 н/о н/о +19.8 +4.3 36 +20 +20 1018.0 1014.4
21 25.03 СВ 6 н/о н/о +17.9 +5.8 45 +17 +17 1018.3 1014.7
22 25.03 В 7 н/о н/о +17.6 +6.5 48 +17 +17 1018.8 1015.2
00 26.03 В 7 н/о н/о +19.7 +6.8 43 +20 +20 1019.2 1015.6
01 26.03 СВ 7 н/о н/о +22.7 +6.9 36 +23 +23 комфорт 1018.9 1015.3 +16.0
03 26.03 СВ 6 н/о н/о +27.3 +6.7 27 +27 +27 жарко 1017.8 1014.2
04 26.03 В 6 н/о н/о +29.2 +6.0 23 +28 +28 жарко 1016.9 1013.3

 

Местоположение метеостанции Перт Джандакот (Западная Австралия, Австралия): широта -32.10 долгота 115.88 высота над уровнем моря 31 м.

В архиве по умолчанию представлена погода в Перт Джандакот за последнюю неделю. Архивные данные за месяц целиком и за предыдущие месяцы, начиная с января 2011 года, Вы можете получить, выбрав интересующий диапазон дат из раскрывающегося списка и нажав кнопку "Ввод!".


*Определитесь, кто Вы:
робот инопланетянин человек

Внимание! Время в таблицах - всемирное. Для получения местного времени необходимо прибавить поправку, которая равна 8 ч.

Смотрите также архив погоды в соседних городах и на ближайших метеорологических станциях:

Погода в Суонборне (Западная Австралия, Австралия) (20 км)
Погода в Перт Монт-Лоули (Западная Австралия, Австралия) (20 км)
Погода в Перте (Западная Австралия, Австралия) (20 км)
Погода в Гусберри Хилл (Западная Австралия, Австралия) (23 км)
Погода на Острове Гарден (Западная Австралия, Австралия) (24 км)
Погода в Обсерватории Перт (Западная Австралия, Австралия) (25 км)
Погода на Острове Роттнест (Западная Австралия, Австралия) (37 км)
Погода в Ошен Риф (Западная Австралия, Австралия) (40 км)
Погода в Мандуре (Западная Австралия, Австралия) (49 км)
Погода в Буллсбрук Пирс (Западная Австралия, Австралия) (50 км)

Пояснения к столбцам:

Ветер - указаны скорость ветра в м/с - средняя за 10 мин, порывы в срок и между сроками (в фигурных скобках) и направление, откуда дует ветер: С - северный, СВ - северо-восточный, В - восточный, ЮВ - юго-восточный, Ю - южный, ЮЗ - юго-западный, З - западный, СЗ - северо-западный.
Видимость - горизонтальная дальность видимости в метрах или километрах. При видимости от 1 до 10 км при отсутствии осадков обычно наблюдается дымка, при ухудшении видимости до 1 км и менее - туман. В сухую погоду видимость может ухудшаться дымом, пылью или мглою.
Явления - указаны атмосферные явления, наблюдавшиеся в срок или в последний час перед сроком; фигурными скобками обозначены явления, наблюдавшиеся между сроками (за 1-3 часа до срока); квадратными скобками обозначены град или гололедные отложения с указанием их диаметра в мм.
Облачность - указаны через наклонную черту общая и нижняя облачность в баллах и высота нижней границы облаков в метрах; квадратными скобками обозначены формы облаков: Ci - перистые, Cs - перисто-слоистые, Cc - перисто-кучевые, Ac - высококучевые, As - высокослоистые, Sc - слоисто-кучевые, Ns - слоисто-дождевые, Cu - кучевые, Cb - кучево-дождевые. Подробнее классификацию облаков см. в Атласе облаков (PDF).
T - Температура воздуха - температура, измеренная на высоте 2 м над землей.
Td - Температура точки росы - температура, при понижении до которой содержащийся в воздухе водяной пар достигнет насыщения.
f - Относительная влажность воздуха - влажноcть воздуха, измеренная на высоте 2 м над землей.
Te - Эффективная температура - температура, которую ощущает одетый по сезону человек в тени. Характеристика душности погоды. При расчете учитывается влияние влажности воздуха и скорости ветра на теплоощущения человека.
Tes - Эффективная температура на солнце - температура, которую ощущает человек, с поправкой на солнечный нагрев. Характеристика знойности погоды. Зависит от высоты солнца над горизонтом, облачности и скорости ветра. Ночью, в пасмурную погоду, а также при ветре 12 м/с и более поправка равна нулю.
P - Атмосферное давление - приведенное к уровню моря атмосферное давление.
Po - Атмосферное давление - измеренное на уровне метеостанции атмосферное давление.
Tmin - Минимальная температура - минимум температуры воздуха на высоте 2 м над землей.
Tmax - Максимальная температура - максимум температуры воздуха на высоте 2 м над землей.
R - Количество осадков - Количество выпавших осадков за период времени, мм. При наведении курсора мыши на число - период времени, за который выпало указанное количество осадков.
R24 - Количество осадков - Количество выпавших осадков за 24 часа, мм.
S - Снежный покров - Высота снежного покрова, см. При наведении курсора мыши на число - состояние снежного покрова и степень покрытия местности в баллах.